Find Starlink 30874

NORAD ID: 58227 Int'l Des: 2023-170 Owner: SPXS Country: US Constellation: starlink operational
LEOCIRCULAR

現在のビュー

3D地球を読み込み中...

About Starlink 30874

Starlink 30874 (NORAD 58227) is a starlink constellation satellite (v2 mini) launched Nov 4, 2023 by SPXS of US. It operates in LEO, CIRCULAR orbit with a mass of 730.00 kg.

Starlink 30874について

説明を読み込み中...

次回通過

Passes for default location (London). Set your location on the main map for personalized predictions.

高度履歴

Loading altitude history...

軌道要素

1 58227U 23170X 26165.82653123 -.00000035 00000-0 82773-5 0 9998
2 58227 43.0039 5.7724 0001997 251.5005 108.5630 15.27578884145158
Epoch: Jun 14, 2026 • Age: 25 hours

現在のステータス

高度 485.9 km
速度 7.63 km/s
衛星直下点 35.33°N, 173.21°W
打ち上げ日 Nov 4, 2023
運用期間 2.6 years
タイプ internet

技術仕様

分類 Payload
質量 730.00 kg
乾燥質量 700.00 kg
総質量 730.00 kg
長さ 0.30 m
直径 4.10 m
スパン 29.00 m
形状 Box + pan
製造者 SPXS
バスタイプ Starlink V2M
フェーズステータス In Orbit
所有者/国 SPXS/US

Most Searched